FW7501 Weather Reports


time (UTC)temp
C
wind
direction
speed
KPH
gust
KPH
rain 1hr
cm
rain 24hr
cm
rain mn
cm
humidity
%
barometer
mb
20260508112009 10 168 9.7 16.1 0.00 0.03 0.03 83 1026.0
20260508111514 11 158 9.7 16.1 0.00 0.03 0.03 83 1026.0
20260508111012 11 175 9.7 17.7 0.00 0.03 0.03 83 1026.0
20260508110503 11 138 12.9 17.7 0.00 0.03 0.03 83 1026.0
20260508110007 11 194 9.7 16.1 0.00 0.03 0.03 83 1026.0
20260508105505 11 201 8.0 14.5 0.00 0.03 0.03 83 1026.0
20260508105008 11 175 9.7 14.5 0.00 0.03 0.03 83 1026.0
20260508104512 11 165 6.4 12.9 0.00 0.03 0.03 83 1026.0
20260508104009 11 195 6.4 16.1 0.00 0.03 0.03 83 1025.9
20260508103505 11 194 8.0 17.7 0.00 0.03 0.03 83 1026.0
20260508103029 11 195 12.9 17.7 0.00 0.03 0.03 83 1026.0
20260508102508 11 175 9.7 19.3 0.00 0.03 0.03 83 1025.8
20260508102004 11 180 12.9 19.3 0.00 0.03 0.03 84 1025.7
20260508101008 11 180 12.9 24.1 0.00 0.03 0.03 84 1025.6
20260508100510 11 180 9.7 24.1 0.00 0.03 0.03 83 1025.6
20260508095507 11 194 9.7 19.3 0.00 0.03 0.03 83 1025.6
20260508095013 11 189 9.7 19.3 0.00 0.03 0.03 82 1025.5
20260508094512 11 170 9.7 19.3 0.00 0.03 0.03 82 1025.7
20260508094007 11 168 11.3 19.3 0.00 0.03 0.03 82 1025.6
20260508093507 11 172 8.0 17.7 0.00 0.03 0.03 82 1025.5
20260508093018 11 199 11.3 17.7 0.00 0.03 0.03 81 1025.4
20260508092008 11 180 11.3 16.1 0.00 0.03 0.03 80 1025.4
20260508091008 11 185 9.7 17.7 0.00 0.03 0.03 80 1025.3
20260508090508 11 162 12.9 17.7 0.00 0.03 0.03 80 1025.3
20260508090029 11 185 12.9 17.7 0.00 0.03 0.03 80 1025.3
20260508085508 11 160 9.7 17.7 0.00 0.03 0.03 80 1025.2
20260508085005 11 175 11.3 17.7 0.00 0.03 0.03 80 1025.2
20260508084527 11 165 11.3 16.1 0.00 0.03 0.03 80 1025.2
20260508084013 11 158 9.7 14.5 0.00 0.03 0.03 80 1025.2
20260508083507 11 169 8.0 12.9 0.00 0.03 0.03 80 1025.1
20260508083006 11 165 6.4 14.5 0.00 0.03 0.03 80 1025.0
20260508082503 11 180 8.0 19.3 0.00 0.03 0.03 80 1025.0
20260508081504 11 155 8.0 16.1 0.00 0.03 0.03 81 1024.8
20260508081006 11 166 8.0 14.5 0.00 0.03 0.03 80 1024.8
20260508080503 11 163 6.4 9.7 0.00 0.03 0.03 80 1024.8
20260508080004 11 152 4.8 14.5 0.00 0.03 0.03 80 1024.7
20260508075505 11 162 6.4 14.5 0.00 0.03 0.03 80 1024.7
20260508075004 11 169 8.0 16.1 0.00 0.03 0.03 80 1024.7
20260508074005 11 185 11.3 17.7 0.00 0.03 0.03 80 1024.6
20260508073505 11 175 8.0 14.5 0.00 0.03 0.03 80 1024.6
20260508073011 11 155 8.0 16.1 0.00 0.03 0.03 80 1024.4
20260508072003 11 160 11.3 20.9 0.00 0.03 0.03 79 1024.2
20260508071521 11 160 11.3 22.5 0.00 0.03 0.03 79 1024.2
20260508071003 12 185 12.9 24.1 0.00 0.03 0.03 79 1024.3
20260508070512 12 185 16.1 24.1 0.00 0.03 0.03 78 1024.2
20260508070016 12 180 12.9 22.5 0.00 0.03 0.03 78 1024.1
20260508065504 12 170 17.7 22.5 0.00 0.03 0.03 78 1024.0
20260508065008 12 189 12.9 27.4 0.00 0.03 0.03 78 1024.1
20260508064505 12 172 17.7 27.4 0.00 0.03 0.03 77 1024.1
20260508063505 12 164 11.3 19.3 0.00 0.03 0.03 77 1024.0
20260508062504 12 185 11.3 24.1 0.00 0.03 0.03 76 1023.9
20260508062007 12 159 14.5 25.7 0.00 0.03 0.03 75 1023.8
20260508061507 12 191 17.7 25.7 0.00 0.03 0.03 75 1023.8
20260508061010 12 167 14.5 22.5 0.00 0.03 0.03 74 1023.8
20260508055508 12 195 12.9 22.5 0.00 0.03 0.03 74 1023.8
20260508055004 12 175 14.5 22.5 0.00 0.03 0.03 73 1024.0
20260508054008 12 149 11.3 24.1 0.00 0.03 0.03 73 1023.8
20260508053504 12 158 17.7 24.1 0.00 0.03 0.03 72 1023.8
20260508053020 12 164 12.9 25.7 0.00 0.03 0.03 73 1023.6
20260508052510 12 194 16.1 25.7 0.00 0.03 0.03 73 1023.6
20260508050508 13 154 16.1 25.7 0.00 0.03 0.03 74 1023.6
20260508050021 13 166 19.3 27.4 0.00 0.03 0.03 74 1023.7
20260508045509 12 189 19.3 27.4 0.00 0.03 0.03 73 1023.7
20260508045008 12 175 17.7 27.4 0.00 0.03 0.03 74 1023.7
20260508044514 12 135 16.1 27.4 0.00 0.03 0.03 74 1023.7
20260508044010 12 175 17.7 29.0 0.00 0.03 0.03 74 1023.6
20260508043010 12 164 16.1 25.7 0.00 0.03 0.03 73 1023.6
20260508042006 13 166 16.1 33.8 0.00 0.03 0.03 70 1023.4
20260508041508 13 195 19.3 33.8 0.00 0.03 0.03 68 1023.4
20260508041007 14 127 17.7 32.2 0.00 0.03 0.03 67 1023.3
20260508040508 13 226 17.7 27.4 0.00 0.03 0.03 68 1023.3
20260508040018 13 224 20.9 27.4 0.00 0.03 0.03 70 1023.3
20260508035507 13 216 17.7 27.4 0.00 0.03 0.03 72 1023.3
20260508035005 13 203 16.1 27.4 0.00 0.03 0.03 71 1023.3
20260508034517 13 175 17.7 33.8 0.00 0.03 0.03 71 1023.5
20260508033510 13 185 20.9 32.2 0.00 0.03 0.03 70 1023.5
20260508032509 13 189 20.9 32.2 0.00 0.03 0.03 72 1023.5
20260508031528 13 253 16.1 24.1 0.00 0.03 0.03 77 1023.5
20260508031010 12 198 16.1 24.1 0.00 0.03 0.03 80 1023.6
20260508030015 12 172 14.5 22.5 0.00 0.05 0.03 81 1023.7
20260508025508 12 191 12.9 22.5 0.00 0.05 0.03 80 1023.7
20260508025005 12 217 12.9 30.6 0.00 0.05 0.03 79 1023.7
20260508024513 12 237 20.9 35.4 0.00 0.05 0.03 78 1023.7
20260508024008 12 229 17.7 35.4 0.00 0.05 0.03 79 1024.0
20260508023508 12 204 16.1 30.6 0.00 0.05 0.03 81 1024.0
20260508022009 11 222 17.7 40.2 0.00 0.05 0.03 83 1024.2
20260508020505 11 199 16.1 29.0 0.00 0.03 0.00 81 1024.1
20260508015506 12 175 16.1 32.2 0.00 0.03 0.00 83 1024.2
20260508014541 11 199 17.7 25.7 0.00 0.03 0.00 84 1024.4
20260508014010 11 237 11.3 25.7 0.00 0.03 0.00 84 1024.4
20260508013508 11 205 17.7 30.6 0.00 0.03 0.00 83 1024.3
20260508012509 11 254 20.9 38.6 0.00 0.03 0.00 84 1024.3
20260508012010 11 207 16.1 38.6 0.00 0.03 0.00 83 1024.3
20260508011522 11 185 19.3 38.6 0.00 0.03 0.00 83 1024.2
20260508011008 11 209 16.1 27.4 0.00 0.03 0.00 83 1024.2
20260508010508 11 218 12.9 35.4 0.00 0.03 0.00 82 1024.1
20260508010027 11 246 19.3 35.4 0.00 0.03 0.00 80 1024.0
20260508005518 11 248 20.9 32.2 0.00 0.03 0.00 79 1024.1
20260508003506 12 208 16.1 30.6 0.00 0.03 0.00 77 1024.0
20260508003050 12 232 19.3 30.6 0.00 0.05 0.00 77 1023.9
20260508002508 12 200 20.9 30.6 0.00 0.05 0.00 78 1023.9
20260508001006 12 228 14.5 30.6 0.00 0.08 0.00 79 1023.9
20260508000513 11 219 14.5 30.6 0.00 0.08 0.00 79 1023.8
20260507235512 11 235 17.7 29.0 0.00 0.08 0.00 79 1023.6
20260507235010 11 210 19.3 33.8 0.00 0.08 0.00 80 1023.6
20260507234525 11 233 20.9 33.8 0.00 0.08 0.00 80 1023.6
20260507234010 11 222 16.1 29.0 0.00 0.08 0.00 81 1023.5
20260507233510 11 229 14.5 35.4 0.00 0.08 0.00 81 1023.4
20260507233003 11 248 19.3 35.4 0.00 0.08 0.00 81 1023.4
20260507232005 11 238 14.5 27.4 0.00 0.08 0.00 82 1023.5
20260507231503 11 236 16.1 37.0 0.00 0.13 0.00 82 1023.6
20260507231006 11 228 22.5 37.0 0.00 0.13 0.00 82 1023.5
20260507230507 11 243 17.7 29.0 0.00 0.13 0.00 82 1023.5
20260507224512 10 229 17.7 32.2 0.00 0.13 0.00 84 1023.2
20260507223503 10 226 24.1 37.0 0.00 0.15 0.00 84 1023.1
20260507222006 10 247 19.3 32.2 0.00 0.15 0.00 85 1023.1
20260507221003 10 229 17.7 30.6 0.00 0.15 0.00 85 1023.1
20260507220511 10 236 20.9 30.6 0.00 0.15 0.00 85 1022.9
20260507220012 10 246 19.3 29.0 0.00 0.18 0.00 85 1022.8
20260507215504 10 225 14.5 32.2 0.00 0.20 0.00 86 1022.7
20260507213504 10 234 19.3 29.0 0.00 0.28 0.00 87 1022.5
20260507211504 10 218 16.1 24.1 0.00 0.28 0.00 86 1022.2
20260507210504 10 249 16.1 24.1 0.00 0.28 0.00 86 1022.1
20260507205507 10 238 11.3 29.0 0.00 0.28 0.00 86 1022.1
20260507205003 10 237 16.1 29.0 0.00 0.28 0.00 86 1022.1
20260507204516 10 230 14.5 24.1 0.00 0.28 0.00 86 1022.2
20260507204005 10 216 16.1 27.4 0.00 0.28 0.00 86 1022.1
20260507202007 10 244 12.9 25.7 0.00 0.28 0.00 86 1021.7
20260507201004 10 236 17.7 27.4 0.00 0.28 0.00 86 1021.8
20260507200010 10 264 12.9 27.4 0.00 0.28 0.00 86 1021.7
20260507194509 10 238 17.7 27.4 0.00 0.28 0.00 87 1021.8
20260507193507 10 224 19.3 32.2 0.00 0.28 0.00 87 1021.7
20260507193006 10 242 17.7 30.6 0.00 0.28 0.00 87 1021.7
20260507192509 10 226 12.9 24.1 0.00 0.28 0.00 88 1021.7
20260507192006 10 243 11.3 22.5 0.00 0.28 0.00 88 1021.7
20260507190506 10 242 6.4 20.9 0.00 0.30 0.00 87 1021.6
20260507185003 10 246 4.8 16.1 0.00 0.28 0.00 87 1021.5
20260507184515 10 243 4.8 16.1 0.00 0.28 0.00 87 1021.5
20260507184005 10 218 8.0 20.9 0.00 0.28 0.00 87 1021.4
20260507183016 10 237 8.0 19.3 0.00 0.28 0.00 87 1021.3
20260507182506 10 227 8.0 17.7 0.00 0.28 0.00 86 1021.1
20260507181514 10 234 6.4 14.5 0.00 0.28 0.00 86 1021.1
20260507181013 10 242 6.4 14.5 0.00 0.28 0.00 86 1021.2
20260507180508 10 249 6.4 11.3 0.00 0.28 0.00 85 1021.1
20260507180013 10 258 6.4 16.1 0.00 0.28 0.00 85 1021.1
20260507175006 10 246 8.0 22.5 0.00 0.28 0.00 84 1021.0
20260507174510 10 249 9.7 22.5 0.00 0.28 0.00 84 1020.9
20260507174007 10 216 11.3 22.5 0.00 0.28 0.00 83 1020.9
20260507173016 10 241 14.5 25.7 0.00 0.28 0.00 81 1020.8
20260507172006 10 240 11.3 17.7 0.00 0.28 0.00 81 1020.7
20260507171522 10 241 11.3 17.7 0.00 0.28 0.00 81 1020.8
20260507171006 10 226 11.3 16.1 0.00 0.28 0.00 80 1020.8
20260507170507 10 245 9.7 20.9 0.00 0.28 0.00 80 1020.9
20260507170025 10 224 12.9 20.9 0.00 0.28 0.00 79 1020.8
20260507165506 10 225 12.9 19.3 0.00 0.28 0.00 79 1020.8
20260507165007 10 241 11.3 29.0 0.00 0.28 0.00 79 1021.0
20260507164517 10 247 11.3 29.0 0.00 0.28 0.00 79 1021.0
20260507164007 10 249 14.5 29.0 0.00 0.28 0.00 79 1021.0
20260507163507 10 287 14.5 29.0 0.00 0.28 0.00 79 1021.0
20260507163019 10 238 16.1 29.0 0.00 0.28 0.00 79 1020.9
20260507162510 10 280 14.5 25.7 0.00 0.28 0.00 79 1021.0
20260507162008 10 258 14.5 25.7 0.00 0.28 0.00 79 1021.0
20260507161517 10 256 14.5 24.1 0.00 0.28 0.00 79 1021.1
20260507160015 10 209 16.1 25.7 0.00 0.28 0.00 79 1021.2
20260507155011 10 270 11.3 17.7 0.00 0.28 0.00 80 1021.1
20260507154522 10 228 8.0 20.9 0.00 0.28 0.00 79 1021.1
20260507154010 10 241 8.0 20.9 0.00 0.28 0.00 79 1021.2
20260507153507 10 254 12.9 22.5 0.00 0.28 0.00 79 1021.2
20260507153032 10 234 11.3 24.1 0.00 0.28 0.00 79 1021.1
20260507152508 10 231 16.1 29.0 0.00 0.28 0.00 79 1021.1
20260507152009 10 212 14.5 29.0 0.00 0.28 0.00 78 1021.3
20260507151516 10 268 16.1 25.7 0.00 0.28 0.00 78 1021.3
20260507150508 10 247 17.7 30.6 0.00 0.28 0.00 78 1021.3
20260507150021 10 235 14.5 30.6 0.00 0.28 0.00 78 1021.3
20260507145507 10 244 14.5 25.7 0.00 0.28 0.00 77 1021.4
20260507145009 10 235 12.9 25.7 0.00 0.28 0.00 77 1021.3
20260507144522 10 262 11.3 20.9 0.00 0.28 0.00 77 1021.4
20260507144010 10 247 11.3 20.9 0.00 0.28 0.00 77 1021.5
20260507143508 10 252 11.3 24.1 0.00 0.28 0.00 77 1021.5
20260507143010 10 256 12.9 24.1 0.00 0.28 0.00 77 1021.5
20260507142003 10 239 8.0 19.3 0.00 0.28 0.00 78 1021.5
20260507141515 10 245 6.4 20.9 0.00 0.28 0.00 77 1021.4
20260507141006 10 249 9.7 22.5 0.00 0.28 0.00 77 1021.4
20260507140025 10 251 14.5 19.3 0.00 0.28 0.00 77 1021.7
20260507135506 10 243 12.9 19.3 0.00 0.28 0.28 78 1021.7
20260507135008 10 260 9.7 22.5 0.00 0.28 0.28 77 1021.7
20260507134505 10 239 12.9 22.5 0.00 0.28 0.28 77 1021.7
20260507134004 10 233 12.9 20.9 0.00 0.28 0.28 77 1021.7
20260507133503 9 287 6.4 24.1 0.00 0.28 0.28 77 1021.9
20260507133007 9 218 9.7 24.1 0.00 0.28 0.28 77 1022.0
20260507132506 9 246 6.4 22.5 0.00 0.28 0.28 77 1022.1
20260507132005 9 243 11.3 17.7 0.00 0.28 0.28 77 1022.1
20260507131512 9 252 4.8 14.5 0.00 0.28 0.28 77 1022.3
20260507131009 9 267 6.4 16.1 0.00 0.28 0.28 77 1022.3
20260507130505 9 245 9.7 25.7 0.00 0.28 0.28 77 1022.3
20260507125510 9 261 9.7 24.1 0.00 0.28 0.28 76 1022.4
20260507125006 9 246 12.9 24.1 0.00 0.28 0.28 76 1022.4
20260507124526 9 251 12.9 24.1 0.00 0.28 0.28 76 1022.4
20260507124009 9 258 8.0 27.4 0.00 0.28 0.28 76 1022.5
20260507123024 9 259 14.5 27.4 0.00 0.28 0.28 76 1022.6
20260507122507 9 257 12.9 25.7 0.00 0.28 0.28 76 1022.7
20260507122006 9 256 16.1 25.7 0.00 0.28 0.28 76 1022.8
20260507121506 9 268 9.7 19.3 0.00 0.28 0.28 76 1022.7
20260507121004 8 262 9.7 19.3 0.00 0.28 0.28 76 1022.8
20260507120503 8 274 11.3 19.3 0.00 0.28 0.28 76 1022.9
20260507115506 8 245 11.3 22.5 0.00 0.28 0.28 76 1022.9
20260507115009 8 272 11.3 17.7 0.00 0.28 0.28 76 1023.0
20260507114511 8 272 11.3 16.1 0.00 0.28 0.28 76 1023.0
20260507114008 8 266 4.8 14.5 0.00 0.28 0.28 76 1023.0
20260507113506 8 264 8.0 20.9 0.00 0.28 0.28 75 1022.9
20260507113004 8 277 9.7 20.9 0.00 0.28 0.28 75 1022.9
20260507112504 8 269 12.9 19.3 0.00 0.28 0.28 75 1023.0